AirNav   Pilot Hours Calculator
 
 936 users online  

3AU Augusta Municipal Airport
Augusta, Kansas, USA

GOING TO AUGUSTA?


FAA INFORMATION EFFECTIVE 22 APRIL 2021

Location

FAA Identifier: 3AU
Lat/Long: 37-40-17.9000N 097-04-40.3000W
37-40.298333N 097-04.671667W
37.6716389,-97.0778611
(estimated)
Elevation: 1328 ft. / 404.8 m (surveyed)
Variation: 04E (2010)
From city: 5 miles W of AUGUSTA, KS
Time zone: UTC -5 (UTC -6 during Standard Time)
Zip code: 67010

Airport Operations

Airport use: Open to the public
Control tower: no
ARTCC: KANSAS CITY CENTER
FSS: WICHITA FLIGHT SERVICE STATION
NOTAMs facility: ICT (NOTAM-D service available)
Attendance: 0600-2200
Wind indicator: no
Segmented circle: yes
Lights: ACTVT HIRL RY 18/36; REIL RYS 18 & 36; VASI RY 36; PAPI RY 18 - CTAF.
Beacon: white-green (lighted land airport)
Operates sunset to sunrise.

Airport Communications

CTAF/UNICOM: 122.8
WX AWOS-3PT: 124.175 (316-733-6696)
WICHITA APPROACH: 134.8
WICHITA DEPARTURE: 134.8
CLEARANCE DELIVERY: 125.0
WX AWOS-3 at 1K1 (6 nm N): 118.3 (316-530-6004)
WX AWOS-3PT at BEC (7 nm W): 119.45 (316-515-7116)
WX ASOS at AAO (8 nm NW): 134.025 (316-636-2541)
WX AWOS-3P at EQA (14 nm NE): 120.875 (316-322-8095)
WX ASOS at ICT (17 nm W): PHONE 316-945-8022

Nearby radio navigation aids

VOR radial/distance  VOR name  Freq  Var
ICTr093/24.4WICHITA VORTAC113.8007E

 
NDB name  Hdg/Dist  Freq  Var  ID
NEWTON153/25.328106EEWK . .-- -.-

Airport Services

Fuel available: 100LL JET-A
SELF SERVE 100 LL; JET A IS FULL SERVICE.
Parking: hangars and tiedowns
Airframe service: MAJOR
Powerplant service: MAJOR
Bottled oxygen: LOW
Bulk oxygen: NONE

Runway Information

Runway 18/36

Dimensions: 4201 x 60 ft. / 1280 x 18 m
Surface: asphalt, in good condition
Weight bearing capacity: 
PCN 5 /F/C/Y/U
Single wheel: 12.0
Runway edge lights: high intensity
RUNWAY 18  RUNWAY 36
Latitude: 37-40.642790N37-39.952533N
Longitude: 097-04.639873W097-04.703435W
Elevation: 1328.0 ft.1306.4 ft.
Traffic pattern: leftright
Runway heading: 180 magnetic, 184 true000 magnetic, 004 true
Markings: nonprecision, in good conditionnonprecision, in good condition
Visual slope indicator: 4-light PAPI on left2-box VASI on left (3.00 degrees glide path)
Runway end identifier lights: yesyes
Touchdown point: yes, no lightsyes, no lights
Obstructions: 38 ft. tree, 984 ft. from runway, 165 ft. right of centerline, 20:1 slope to clearnone

Airport Ownership and Management from official FAA records

Ownership: Publicly-owned
Owner: CITY OF AUGUSTA
113 EAST 6TH AVE., BOX 489
AUGUSTA, KS 67010
Phone 316-775-4510
Manager: CODY SIMS
113 EAST 6TH AVE, PO BOX 489
AUGUSTA, KS 67010
Phone (316) 775-4505
ASSISTANT CITY MANAGER

Airport Operational Statistics

Aircraft based on the field: 60
Single engine airplanes: 50
Multi engine airplanes: 10
    
Aircraft operations: avg 99/day *
58% local general aviation
42% transient general aviation
* for 12-month period ending 02 November 2017

Additional Remarks

FOR SVC AFT HRS CALL (316)-733-1326.
PAEW MOWING SUMMER MONTHS.
RY ENDS LINE OF SITE OBSTRUCTED BY TERRAIN
CALM WIND RUNWAY IS RUNWAY 18
AIRPORT LINE OFFICE PHONE 316-733 1326
FOR CD CTC WICHITA APCH AT 316-350-1520.

Instrument Procedures

NOTE: All procedures below are presented as PDF files. If you need a reader for these files, you should download the free Adobe Reader.

NOT FOR NAVIGATION. Please procure official charts for flight.
FAA instrument procedures published for use from 22 April 2021 at 0901Z to 20 May 2021 at 0900z.

 
IAPs - Instrument Approach Procedures
RNAV (GPS) RWY 36   download (231KB)
VOR/DME-A   download (187KB)
NOTE: Special Alternate Minimums apply   download (39KB)
NOTE: Special Take-Off Minimums/Departure Procedures apply   download (147KB)

Other nearby airports with instrument procedures:

1K1 - Lloyd Stearman Field Airport (6 nm N)
KBEC - Beech Factory Airport (7 nm W)
KAAO - Colonel James Jabara Airport (8 nm NW)
KCEA - Cessna Aircraft Field Airport (8 nm W)
KIAB - Mc Connell Air Force Base (9 nm W)
KEQA - El Dorado/Capt Jack Thomas Memorial Airport (14 nm NE)
KICT - Wichita Dwight D Eisenhower NTL Airport (17 nm W)
 
Loc | Ops | Rwys | IFR | FBO | Links
Com | Nav | Svcs | Stats | Notes
Area around 3AU (Augusta Municipal Airport)
 
Road maps at: MapQuest Bing Google
 
Aerial photo
WARNING: Photo may not be current or correct
Aerial photo of 3AU (Augusta Municipal Airport)
Photo taken 27-Aug-2009

Do you have a better or more recent aerial photo of Augusta Municipal Airport that you would like to share? If so, please send us your photo.

 
Sectional chart

 
Airport diagram
CAUTION: Diagram may not be current
Diagram of 3AU (Augusta Municipal Airport)
 
Airport distance calculator
Flying to Augusta Municipal Airport? Find the distance to fly.

From to 3AU

Sunrise and sunset
Times for 08-May-2021
 Local
(UTC-5)
 Zulu
(UTC)
Morning civil twilight05:5710:57
Sunrise06:2611:26
Sunset20:2401:24
Evening civil twilight20:5201:52

Current date and time
Zulu (UTC)  08-May-2021 13:03:16
Local (UTC-5)  08-May-2021 08:03:16
 
METAR
K3AU 081235Z AUTO 12011KT 10SM CLR 14/10 A2980 RMK AO2
K1K1 
6nm N 
081235Z AUTO 13008G15KT 10SM CLR 13/10 A2980 RMK AO2 T01280095
KBEC 
7nm W 
081255Z AUTO 13012KT 10SM CLR 15/11 A2979 RMK AO2 T01470105
KAAO 
8nm NW 
081254Z AUTO 14009KT 10SM FEW002 15/10 A2979 RMK AO2 SLP081 T01500100
KIAB 
10nm W 
081256Z AUTO 15014G20KT 10SM CLR 16/16 A2978 RMK AO2 SLP079 T01580156
KEQA 
14nm NE 
081255Z AUTO 14015G20KT 10SM CLR 16/11 A2980 RMK AO2
KICT 
17nm W 
081253Z 13012KT 10SM FEW180 FEW220 16/12 A2978 RMK AO2 SLP074 T01610117
TAF
KIAB 
10nm W 
081124Z 0811/0916 14009KT 9999 FEW260 WS020/20040KT QNH2978INS BECMG 0814/0815 17010G15KT 9999 SCT080 QNH2958INS BECMG 0820/0821 18020G30KT 9999 FEW080 SCT100 QNH2951INS BECMG 0902/0903 18025G35KT 8000 -SHRA VCTS SCT015CB BKN020 QNH2946INS TEMPO 0904/0908 20035G45KT 4800 -TSRA BKN015CB OVC025 BECMG 0908/0909 35030G40KT 9999 NSW BKN020 QNH2965INS TX28/0821Z TN09/0909Z
KICT 
17nm W 
081129Z 0812/0912 12010KT P6SM SCT250 FM081500 17020G29KT P6SM SCT250 FM090300 19018G27KT P6SM FEW050 BKN200 WS020/20050KT FM090600 33017G25KT P6SM VCSH OVC040
NOTAMs
Click for the latest NOTAMs
NOTAMs are issued by the DoD/FAA and will open in a separate window not controlled by AirNav.

 

 
 

FBO, Fuel Providers, and Aircraft Ground Support

  
 Business Name 
 
 Contact 
 
 Services / Description 
 
Fuel Prices
 
Comments
  
Augusta Municipal Airport UNICOM 122.80
316-733-1326
316-733-1327
[web site]
[email]
Augusta Municipal Airport offers ALL the amenities that larger FBO's and Airports do, but without the hassle of the big city delays, access issues and headaches! Augusta Municipal Airport is close to downtown Wichita, with established crew rates for hotels, on-demand catering and a crew car. Augusta offers quick turn around for aircraft seeking to gas and go! Come check us out - you'll be glad you did! www.flyaugustaks.com
More info and photos of Augusta Municipal Airport
 
AirBoss™ fuel program   WSI Pilotbrief   WingPoints™ Rewards   Courtesy car  
 
Phillips 66
100LL Jet A
FS --- $3.25 
SS $4.50 --- 
GUARANTEED
AirBossMEMBER
PRICING
FS --- $3.09 
 
   4 read write
FS=Full service
SS=Self service
Update Fuel Prices
 

Would you like to see your business listed on this page?

 If your business provides an interesting product or service to pilots, flight crews, aircraft, or users of the Augusta Municipal Airport, you should consider listing it here.  To start the listing process, click on the button below
 
Add a business
 

Other Pages about Augusta Municipal Airport

www.flyaugustaks.com
www.augustagov.org/...
 
Update a link
 
Copyright © AirNav, LLC. All rights reserved. Privacy Policy  Contact